Location: Unspecified
(0.0000°N, 0.0000°E)
Time: 14:06:35
(UTC+00:00)

Altair - Pass Details

Date: 04 November 2021
Orbit: 1502 x 1682 km, 47.2° (Epoch: 26 November)

Event Time Altitude Azimuth Distance (km) Brightness Sun altitude
Rises 10:43:48 0° 281° (W) 4,893 10.0 68.6°
Reaches altitude 10° 10:48:35 10° 262° (W) 3,926 9.7 69.4°
Maximum altitude 10:54:24 17° 226° (SW) 3,424 9.6 70.3°
Drops below altitude 10° 11:00:17 10° 189° (S) 3,942 10.0 71.2°
Sets 11:05:12 0° 170° (S) 4,921 10.4 71.8°
